Location: Cosy Dell
(34.2789°N, 117.4537°W)
Time: 00:37:15
(UTC+00:00)

CZ-4C R/B - Pass Details

Date: 14 July 2020
Orbit: 632 x 1370 km, 63.4° (Epoch: 12 August)

Event Time Altitude Azimuth Distance (km) Brightness Sun altitude
Rises 07:16:45 0° 330° (NNW) 3,962 6.6 -33.4°
Reaches altitude 10° 07:19:19 10° 331° (NNW) 3,092 5.9 -33.5°
Maximum altitude 07:26:58 82° 59° (ENE) 1,311 3.0 -33.7°
Enters shadow 07:27:08 81° 79° (E) 1,314 3.0 -33.7°
